Home   Weather   St. Veit an der Glan   Past weeks

Flag for Austria Past Weather in St. Veit an der Glan, Carinthia, Austria — Yesterday and Last 2 Weeks

Now
11 °F

Icy mix. Sunny.


Feels Like: N/A
Forecast: 11 / 32 °F
Wind: N/A

Location: Klagenfurt-Flughafen

Current Time: Jan 21, 2017 at 12:09:29 pm

Latest Report: Jan 21, 2017 at 11:00 am


Visibility: 0 mi

Pressure: 30.69 "Hg

Humidity: 91%

Dew Point: 9 °F

Location of St. Veit an der GlanLocation

Past Weather in St. Veit an der Glan — Graph

°F

St. Veit an der Glan Temperature Yesterday

Maximum temperature yesterday: 24 °F (at 4:00 pm)
Minimum temperature yesterday: 7 °F (at 7:00 am)
Average temperature yesterday: 14 °F

High & Low Weather Summary for the Past Weeks

 TemperatureHumidityPressure
High40 °F (Jan 9, 3:00 pm)100% (Jan 16, 12:00 am)30.78 "Hg (Jan 16, 12:00 am)
Low4 °F (Jan 7, 8:00 am)23% (Jan 6, 3:00 pm)29.55 "Hg (Jan 13, 1:00 pm)
Average20 °F75%30.29 "Hg
* Reported Jan 6 10:00 am — Jan 21 10:00 am, St. Veit an der Glan, Weather by CustomWeather, © 2017

Note: Actual official high and low records may vary slightly from our data, if they occured in-between our weather recording intervals... More about our weather records

Advertising

St. Veit an der Glan Weather History for the Previous 24 Hours

Scroll right to see more
 ConditionsComfort  
Time TempWeatherWind HumidityBarometerVisibility
10:00 am
Sat, Jan 21
10 °FLow clouds.N/A88%30.70 "Hg0 mi
9:00 am7 °FIcy mix. Partly sunny.N/A83%30.70 "Hg1 mi
8:00 am6 °FLight snow. Scattered clouds.N/A84%30.70 "Hg0 mi
7:00 am7 °FIcy mix. Low clouds.N/A87%30.69 "Hg1 mi
6:00 am8 °FIce fog.N/A86%30.69 "Hg1 mi
5:00 am7 °FLow clouds.N/A85%30.70 "Hg6 mi
4:00 am6 °FPassing clouds.N/A86%30.71 "Hg6 mi
3:00 am7 °FPassing clouds.N/A87%30.71 "Hg5 mi
2:00 am8 °FPassing clouds.N/A87%30.71 "Hg5 mi
1:00 am9 °FFrigid.N/A87%30.71 "Hg5 mi
12:00 am9 °FFrigid.N/A87%30.72 "Hg4 mi
11:00 pm
Fri, Jan 20
11 °FClear.N/A87%30.71 "Hg5 mi
10:00 pm13 °FClear.N/A88%30.70 "Hg5 mi
9:00 pm14 °FClear.N/A88%30.69 "Hg4 mi
8:00 pm16 °FClear.N/A87%30.68 "Hg4 mi
7:00 pm17 °FClear.N/A86%30.67 "Hg6 mi
6:00 pm18 °FClear.N/A82%30.66 "Hg5 mi
5:00 pm20 °FClear.N/A79%30.65 "Hg7 mi
4:00 pm24 °FSunny.N/A73%30.63 "Hg8 mi
3:00 pm23 °FSunny.N/A74%30.65 "Hg7 mi
2:00 pm22 °FSunny.N/A80%30.66 "Hg6 mi
1:00 pm18 °FSunny.N/A87%30.69 "Hg4 mi
12:00 pm17 °FPassing clouds.N/A91%30.72 "Hg2 mi
Weather by CustomWeather, © 2017

See weather overviewHow to use our weather pages